Theta_e
316 320 322 324 324 321 319 315 311 310 311 312 314 317 318 318 316 317 319 314 310 313 315 313 314 314 314 315 310 309 310 310 311 312 312 314 317 319 320 319 319 317 315 313 314 315 315 315 314 315 315 316 318 321 323 325 325 326 327 327 326 326 326 326 326 325 325 324 324 323 320 320 321 322 323 322 322 322 322 323 324 324 324 323 323 323
318 323 324 323 321 318 316 312 310 310 310 310 312 315 316 316 316 315 315 314 311 312 315 314 313 314 314 314 310 308 309 309 309 310 310 312 313 315 316 316 316 315 314 314 315 315 315 316 315 315 315 316 318 319 322 323 324 325 325 324 323 323 324 324 323 323 322 321 320 320 318 318 318 320 321 320 321 321 322 324 325 326 327 326 326 325
319 323 323 319 315 312 312 310 309 309 310 311 312 313 316 316 315 314 313 314 312 312 317 316 313 314 314 314 310 307 309 310 310 311 312 313 313 313 314 314 314 313 313 313 314 314 315 316 315 315 315 315 316 317 319 321 324 326 325 322 321 322 321 321 322 321 320 320 320 321 320 319 319 319 320 320 321 321 322 324 324 325 326 326 325 325
320 321 319 315 312 310 310 309 308 309 310 311 312 314 316 315 315 315 313 314 314 312 315 316 315 316 315 314 313 309 309 311 311 312 312 312 313 314 313 313 313 313 313 313 313 314 315 315 316 316 315 315 316 317 318 320 323 325 324 322 321 320 319 319 320 320 320 321 323 324 323 322 321 320 320 321 321 321 321 322 322 324 325 324 324 324
319 317 315 313 311 310 311 309 308 309 310 311 313 314 316 317 316 316 315 314 313 311 313 315 317 319 318 316 316 313 310 310 311 311 312 312 312 313 313 312 313 313 313 314 314 314 314 315 315 315 315 314 315 316 316 317 319 320 320 320 320 319 319 319 319 320 321 323 324 325 325 324 322 321 321 320 320 320 320 320 322 323 323 324 324 324
317 314 312 313 312 310 310 311 310 309 310 311 313 314 315 317 316 316 316 314 314 314 315 314 315 324 327 320 315 314 311 310 311 309 310 313 312 312 313 313 313 313 313 314 314 314 314 314 314 314 314 314 314 314 314 315 316 316 317 318 319 320 319 319 319 320 322 323 324 324 324 323 322 320 320 319 319 319 320 321 321 321 321 323 324 325
315 313 312 313 314 313 312 311 310 310 310 311 314 314 314 315 316 317 316 316 319 319 314 312 315 325 327 321 316 314 313 313 312 309 309 312 312 313 314 314 314 313 313 314 314 314 314 314 314 314 314 313 313 314 314 315 316 316 317 318 319 319 319 319 320 322 323 324 325 324 324 323 322 321 319 319 319 319 321 322 322 321 321 323 324 324
313 314 313 313 314 315 314 312 310 310 309 312 317 316 313 314 317 318 316 319 322 317 313 313 316 319 319 318 316 312 313 314 312 311 309 309 312 314 314 314 314 314 313 313 314 314 314 314 314 314 313 313 313 313 314 315 316 316 316 317 318 318 318 319 320 322 323 324 325 326 325 325 324 322 322 321 321 321 322 322 323 323 324 323 323 323
312 315 314 313 315 314 314 313 312 309 310 315 319 316 313 314 317 318 316 319 319 315 316 317 314 316 320 323 317 311 313 315 315 315 311 309 311 313 313 314 315 314 314 313 313 314 314 314 314 314 314 314 313 313 314 314 315 317 317 318 318 319 319 319 320 321 322 324 325 326 326 326 325 324 324 324 324 323 323 323 322 323 324 324 323 322
311 314 313 313 314 313 312 312 312 311 311 312 314 315 316 317 318 316 317 319 315 314 318 319 314 314 321 326 319 312 313 315 317 317 311 308 310 312 313 314 315 315 314 313 314 314 314 314 314 315 315 314 314 314 315 316 316 318 319 319 319 319 319 320 320 321 322 324 325 326 326 327 327 326 325 325 325 324 324 324 324 324 323 323 321 320
311 311 312 312 313 312 311 311 310 310 310 310 315 318 317 321 321 319 323 322 315 315 319 319 316 313 317 324 319 314 315 316 315 316 313 308 309 311 312 314 315 315 314 313 314 314 314 314 314 315 315 314 315 314 315 316 317 318 319 319 319 319 320 321 321 322 323 324 325 325 326 327 328 327 326 325 325 324 324 324 324 324 323 321 320 319
311 312 312 311 312 311 311 312 310 310 310 311 320 321 317 322 322 319 323 319 314 319 318 316 315 312 314 321 319 315 316 315 313 315 316 310 308 310 311 313 314 314 315 313 314 314 314 314 314 314 315 315 315 315 315 316 317 318 318 319 319 319 320 321 322 323 324 325 325 326 327 328 327 326 326 326 324 324 324 324 324 323 321 319 318 317
313 316 315 312 312 312 313 314 313 314 312 312 318 317 315 319 317 317 320 316 316 318 312 310 313 312 313 317 316 316 315 314 310 310 312 309 308 310 310 312 314 314 314 313 314 314 314 314 314 314 315 315 315 315 316 316 317 317 318 318 318 318 319 321 323 324 325 326 326 327 327 327 327 326 325 325 325 324 323 324 323 321 319 317 315 314
315 317 315 313 313 311 313 314 314 315 313 312 314 314 317 318 315 316 318 315 317 317 311 309 312 314 316 316 317 317 314 312 307 306 309 308 309 311 311 311 313 313 314 314 314 315 315 315 315 315 315 315 316 316 316 317 317 317 317 317 316 316 318 320 323 325 325 326 326 327 327 326 325 325 325 325 325 324 323 323 322 320 318 315 313 312
316 316 314 315 313 311 313 312 314 317 314 314 315 316 320 322 320 319 318 319 321 317 312 309 313 320 320 316 316 312 308 308 308 309 310 309 310 312 312 311 312 313 314 313 314 314 315 315 315 316 315 315 315 315 316 316 316 316 315 314 314 314 315 318 322 325 326 326 326 327 326 325 324 324 325 325 324 324 324 322 320 318 316 313 312 312
315 316 313 312 310 311 313 311 313 317 315 314 316 316 317 320 325 321 315 321 323 318 315 312 316 323 318 313 312 308 306 307 309 311 311 311 312 312 312 312 311 313 313 313 314 314 314 314 314 314 314 314 315 314 314 314 314 314 313 313 313 313 313 314 317 322 324 325 326 325 324 324 324 324 324 325 324 323 322 320 318 316 313 312 312 312
315 315 313 311 309 310 312 311 311 313 315 314 313 316 315 314 323 321 312 314 317 316 317 313 315 320 316 313 316 314 313 312 310 311 310 311 312 311 313 313 311 313 313 314 314 314 314 314 313 313 313 313 313 313 313 313 313 313 312 312 313 312 312 311 313 317 320 322 323 323 322 323 324 324 324 324 322 320 319 317 315 313 312 312 312 312
316 315 314 313 313 310 309 310 310 309 311 315 314 315 314 311 319 321 316 317 316 315 320 316 313 317 316 316 320 316 314 317 316 313 310 310 312 312 313 313 312 313 314 314 314 314 314 314 313 313 313 313 313 312 312 312 312 312 312 312 312 311 311 311 312 314 317 319 320 321 322 323 323 324 323 322 319 317 316 315 313 312 312 312 312 311
316 317 314 312 314 313 310 311 312 309 308 312 313 312 314 315 317 316 315 319 316 314 321 318 312 314 316 318 322 315 314 319 316 315 315 314 311 311 313 313 313 314 314 314 314 314 314 314 313 313 313 313 313 312 312 312 311 311 310 311 311 310 311 311 312 315 317 319 320 322 322 323 323 322 321 319 317 316 314 313 312 312 312 312 310 309
316 320 316 312 313 314 314 314 315 314 310 309 310 309 313 318 318 316 315 318 316 315 320 317 312 316 318 319 322 317 317 318 313 316 320 314 310 312 313 314 314 314 314 314 314 314 314 313 313 313 313 313 313 312 312 312 311 310 310 310 310 309 310 311 312 315 318 319 321 321 321 321 320 319 317 316 315 314 312 312 312 312 311 310 309 307
314 319 318 314 313 313 314 315 316 317 314 312 312 311 312 313 314 317 316 316 319 320 321 316 314 323 324 316 317 316 316 316 313 317 317 309 310 314 313 313 314 314 314 314 314 314 313 313 313 314 313 313 313 312 312 311 311 310 309 309 309 309 309 310 311 314 316 318 319 318 318 317 316 315 315 314 313 312 312 312 312 311 310 308 306 305
313 317 318 315 314 314 314 313 313 315 315 315 314 314 315 315 316 318 314 314 316 315 319 317 315 326 326 314 313 313 314 313 309 310 310 307 310 313 313 314 314 314 314 314 314 313 313 313 313 314 314 313 313 312 311 311 310 310 310 309 309 309 309 310 310 311 313 314 315 315 315 315 315 314 313 312 312 312 312 312 311 309 308 306 305 304
315 319 321 317 315 316 315 310 307 310 313 314 312 313 315 315 318 319 315 317 315 310 313 314 313 322 325 314 310 309 308 307 305 305 306 306 309 311 313 314 314 314 314 313 313 313 313 313 313 314 314 313 312 312 311 311 310 310 310 309 309 309 309 309 310 310 311 312 313 314 314 314 313 312 312 312 312 312 312 311 309 307 305 304 304 303
313 318 320 318 317 317 317 314 309 309 312 314 314 313 313 314 318 321 320 320 317 313 314 312 311 321 327 315 305 302 301 303 305 306 305 306 308 308 309 312 313 314 314 313 313 313 313 313 314 314 314 313 313 312 312 311 311 311 310 310 310 310 310 311 312 312 312 312 313 313 313 312 312 311 312 312 312 311 311 309 307 305 304 303 302 302
313 316 317 317 318 317 319 319 314 312 312 315 317 314 313 315 316 316 315 313 314 318 316 313 315 322 326 318 306 304 305 305 304 306 307 307 308 308 308 310 312 313 314 313 313 313 313 313 313 314 314 313 313 313 313 312 312 312 312 312 311 311 312 313 313 313 313 313 313 312 312 311 312 312 312 311 311 310 309 307 305 304 303 302 301 301
315 318 316 316 317 316 317 317 316 316 314 314 316 314 313 315 313 314 315 311 314 317 313 313 320 323 322 318 313 312 313 311 308 307 308 308 308 308 308 309 311 313 313 313 313 313 313 313 313 314 313 313 313 313 313 313 313 313 313 313 313 313 313 313 313 313 312 312 312 311 311 312 311 312 311 311 310 309 307 305 304 303 302 301 300 300
319 320 314 314 316 315 317 317 316 318 316 314 315 315 315 313 311 316 318 315 318 318 314 317 321 318 317 317 316 317 318 318 314 308 307 309 309 308 309 309 310 312 312 313 313 312 313 313 313 313 313 313 313 313 313 313 313 313 313 313 313 313 312 312 312 312 312 312 311 311 312 311 311 311 311 310 308 306 304 303 302 302 301 301 300 299
319 317 314 314 314 315 318 318 316 316 315 314 315 316 318 316 313 315 316 316 320 318 314 320 320 314 314 317 318 320 321 320 313 305 306 310 309 309 309 309 310 311 312 313 312 312 313 313 313 313 313 313 313 313 313 313 312 312 312 312 312 312 312 312 312 312 312 312 311 311 311 311 311 311 310 308 306 304 303 302 302 301 300 300 299 299
316 314 313 314 314 315 317 315 315 316 314 314 315 315 317 317 316 316 315 314 318 315 312 317 319 314 313 315 318 318 315 313 309 305 307 310 309 309 309 309 310 311 312 312 312 313 313 313 313 313 313 313 313 313 313 313 312 312 312 312 312 312 312 312 312 312 312 311 311 311 311 311 311 310 308 306 304 303 302 301 301 300 300 299 299 298
313 315 315 314 312 314 317 315 314 315 314 314 315 314 314 316 315 315 314 313 314 314 313 313 316 314 312 314 317 313 308 307 307 307 309 310 310 310 310 310 311 311 312 312 312 313 313 313 313 313 313 313 313 313 313 312 312 312 312 312 312 312 312 312 312 311 311 311 311 311 311 311 310 308 306 305 303 302 301 301 300 300 299 299 298 298
311 315 314 313 313 313 316 316 315 315 314 314 314 314 313 314 314 314 314 313 313 313 313 312 314 315 311 309 309 308 307 307 308 308 309 309 310 310 310 311 311 311 312 312 312 313 312 313 313 313 313 313 313 313 313 313 312 312 312 312 312 312 312 312 312 311 311 312 311 311 311 310 309 307 305 303 302 301 300 300 300 299 299 298 298 297
314 314 311 312 314 312 313 316 315 313 312 313 314 314 313 313 313 313 313 313 313 313 313 313 313 313 312 308 307 307 307 306 307 310 310 310 310 310 310 311 311 312 312 312 312 312 312 313 313 313 314 313 313 313 313 313 313 312 312 312 312 312 312 312 311 311 311 311 311 311 310 309 307 305 304 302 301 300 300 300 299 299 298 297 297 297
317 316 313 314 316 313 311 314 315 313 312 313 314 313 312 312 312 312 312 313 313 312 314 313 311 312 314 313 311 311 309 306 307 311 311 311 310 310 311 311 312 312 312 312 312 312 312 312 312 312 313 313 313 313 313 313 313 312 312 312 312 312 312 312 311 311 311 311 311 310 309 307 306 304 303 301 300 300 299 299 299 298 297 297 297 298
317 317 316 316 317 314 310 312 315 315 313 314 315 315 313 312 313 313 312 312 311 311 312 312 312 315 317 314 313 313 312 310 310 311 311 311 311 311 311 312 312 312 312 312 312 312 312 312 312 312 313 313 313 313 313 313 313 312 312 312 312 312 311 311 311 311 311 310 310 309 308 306 304 303 302 301 300 299 299 299 298 297 297 297 297 298
316 317 318 319 318 315 312 313 316 315 313 315 318 317 312 311 312 313 313 312 311 311 312 311 313 315 313 310 310 310 309 310 311 311 311 311 311 312 312 312 312 313 312 312 312 312 312 312 312 312 312 312 313 312 312 312 312 312 312 311 311 311 311 311 311 310 310 310 309 308 307 305 303 302 301 300 299 299 299 298 297 297 297 297 298 298
314 316 318 318 317 315 313 314 315 315 315 318 319 314 310 311 312 312 312 313 312 311 312 311 311 311 308 306 308 308 308 309 310 310 311 312 312 312 312 312 312 312 312 313 313 313 312 312 312 312 312 312 312 312 312 312 312 312 311 311 311 311 311 311 310 310 310 310 309 308 306 304 302 301 300 300 299 299 298 297 297 296 297 297 298 298
313 316 317 315 315 315 315 314 315 316 315 316 318 315 311 312 314 313 314 314 313 312 311 310 310 310 308 307 308 309 308 308 310 311 311 311 312 312 312 312 312 312 312 312 313 313 312 312 312 312 312 312 312 312 312 311 311 312 311 311 311 311 311 310 310 310 310 309 309 307 305 303 301 300 300 299 299 298 298 297 296 296 296 297 297 297
313 315 316 314 315 317 318 315 315 316 314 314 318 317 312 310 311 312 313 315 316 312 309 309 311 311 309 308 308 308 308 310 311 311 311 312 312 312 312 312 312 312 312 312 313 313 312 312 312 311 311 311 312 312 312 311 311 311 311 311 310 310 310 310 310 310 309 309 308 306 304 302 300 300 299 299 298 298 297 296 296 296 296 296 297 297
315 315 315 315 315 316 317 315 314 314 313 316 320 316 311 309 310 311 313 315 315 311 308 309 310 310 308 307 307 308 310 313 313 311 311 312 312 311 312 312 312 312 312 312 313 313 312 312 311 311 311 311 311 311 311 311 311 310 310 310 310 310 310 310 310 310 309 308 307 305 303 301 299 299 298 298 298 297 296 296 296 296 296 296 296 296
315 314 313 315 316 315 315 315 315 314 314 320 321 314 309 309 311 314 316 315 312 310 310 310 308 308 309 308 307 308 312 314 312 311 311 312 312 311 312 312 311 312 312 312 312 312 312 312 311 311 311 311 311 311 311 311 311 310 310 310 310 310 310 310 310 309 309 308 306 304 302 300 299 298 297 297 297 296 296 295 295 296 296 296 296 296
314 314 314 314 315 315 315 315 317 316 317 321 318 309 307 310 313 316 318 316 312 310 310 310 309 309 309 308 307 309 311 311 311 311 311 311 312 312 311 311 311 312 311 312 312 312 312 311 311 310 310 310 310 310 310 311 310 310 310 310 309 310 310 310 309 308 308 307 305 303 301 299 298 297 296 296 296 295 295 295 295 295 295 295 295 295
314 315 315 314 314 315 316 315 315 316 316 316 311 306 307 313 316 316 315 313 311 310 310 310 310 310 309 308 308 310 311 311 311 311 311 311 311 311 311 311 311 311 311 311 311 311 311 311 310 310 310 310 310 310 310 310 310 310 310 309 310 310 309 309 309 308 307 306 304 302 299 298 297 296 296 296 295 295 294 294 295 295 295 295 294 294
312 313 314 313 313 316 316 314 316 316 312 309 308 308 310 315 317 315 311 310 310 310 310 311 310 310 311 310 310 311 311 311 311 311 311 311 310 311 311 311 311 311 311 311 310 310 310 310 310 310 310 310 310 310 310 310 309 309 309 309 309 309 308 308 308 307 306 305 303 300 298 297 296 296 295 295 294 294 294 294 294 295 294 294 294 293
312 313 313 312 313 315 315 315 316 314 308 307 310 312 311 312 313 312 310 310 310 310 311 311 311 311 311 310 311 311 310 310 310 310 310 310 310 311 311 311 311 311 310 310 310 310 310 310 310 310 310 310 309 309 309 309 309 309 309 309 309 308 308 308 307 306 306 304 302 299 298 296 296 295 295 295 294 294 294 294 294 294 294 294 293 293
312 311 311 313 314 314 313 314 312 308 305 307 310 311 310 309 309 310 311 311 311 311 311 311 311 311 311 310 310 310 310 310 310 310 310 310 310 310 310 310 310 310 310 310 310 310 310 310 310 310 310 310 310 309 309 309 309 309 308 309 308 308 308 307 306 306 305 303 301 299 297 296 295 295 295 294 294 294 294 294 294 294 293 293 293 292
308 306 308 313 314 311 309 309 307 306 305 306 309 310 309 309 309 309 310 310 310 311 311 310 311 311 311 310 310 310 311 311 310 310 309 309 310 310 310 310 310 310 309 309 309 310 310 310 310 310 310 310 310 309 309 309 308 308 308 308 308 308 308 307 306 306 305 303 301 298 296 295 295 295 294 294 294 294 293 293 293 293 293 292 292 293
306 304 308 313 313 311 312 310 307 307 306 306 307 309 309 309 309 309 310 310 310 310 310 310 311 311 310 310 310 310 311 310 310 310 309 309 309 309 309 309 309 309 309 309 309 309 309 309 309 309 309 309 309 309 308 308 308 308 308 308 307 307 307 307 306 305 304 302 300 298 296 295 295 295 294 294 293 293 293 293 292 292 292 292 293 295
308 306 310 315 313 311 311 306 302 303 305 305 307 309 308 308 309 309 310 310 309 309 310 309 310 310 310 310 310 310 310 310 310 310 309 308 309 309 309 309 309 308 309 308 308 309 309 308 309 308 308 308 308 308 308 307 307 307 307 307 307 307 306 306 305 305 304 302 299 297 296 295 294 294 294 294 293 293 293 293 292 292 293 294 295 295
306 307 311 314 312 310 308 302 300 304 307 306 307 309 308 308 308 308 309 309 308 308 309 308 309 309 309 309 309 309 310 310 309 309 309 308 308 308 308 308 308 308 308 308 308 309 308 308 308 307 307 307 307 307 307 307 307 307 306 306 306 306 306 305 305 304 303 301 299 297 295 295 294 294 294 293 293 293 293 292 292 293 293 294 294 293
306 310 311 310 311 312 309 305 305 310 312 308 307 308 308 307 307 307 308 308 307 307 308 307 308 308 308 308 308 308 308 309 308 308 308 308 308 308 308 308 308 308 308 308 308 308 308 307 307 307 307 307 306 306 306 306 306 306 306 305 305 305 305 305 304 303 302 300 298 296 295 294 294 294 293 293 293 292 292 293 293 293 293 293 292 291
306 311 310 309 311 311 309 306 306 308 310 308 307 308 308 307 307 307 307 307 307 307 307 307 307 307 307 307 307 307 308 308 308 307 307 308 308 308 308 308 308 308 308 307 307 307 307 307 307 307 307 306 306 305 305 305 305 305 305 304 304 304 304 304 303 303 302 300 298 296 295 294 294 293 293 292 292 292 292 293 293 293 292 291 290 290
Wind_Speed
12 7 6 11 11 12 12 9 7 7 8 8 4 4 6 5 5 5 4 5 1 5 7 8 8 9 10 9 6 10 14 16 20 20 21 23 25 28 31 32 32 32 31 27 27 28 27 26 25 25 25 26 27 28 29 28 27 26 25 25 24 23 22 21 21 22 22 23 23 23 23 22 22 20 20 20 19 19 18 18 17 16 16 15 14 13
10 9 13 14 9 9 11 6 6 10 9 9 6 4 6 6 5 5 3 4 2 4 6 4 5 9 10 9 5 7 10 15 22 22 23 27 27 29 31 33 33 32 31 30 29 29 28 27 26 26 26 28 29 29 30 30 28 27 27 26 25 24 23 23 22 22 23 23 22 21 20 19 19 19 19 18 17 17 17 17 17 16 16 17 16 15
7 11 12 10 9 8 8 6 8 10 8 8 5 4 5 4 3 3 2 4 3 3 4 1 4 9 11 8 5 9 12 17 24 25 28 30 30 32 33 32 32 31 32 32 31 30 29 28 27 27 27 28 28 29 29 30 29 29 29 28 26 25 25 24 23 23 23 22 21 20 18 17 17 16 16 16 16 17 17 18 18 16 16 17 16 16
7 7 5 11 10 8 6 6 7 7 7 6 5 4 4 3 3 2 3 2 3 1 1 2 3 6 7 6 5 13 18 19 22 24 27 29 29 31 31 31 31 31 31 30 30 30 30 29 29 29 29 28 28 29 30 30 30 31 31 29 28 27 26 25 24 24 23 22 21 21 20 18 18 16 15 16 17 17 18 18 17 16 16 15 14 13
5 2 12 13 8 8 6 6 7 6 6 6 5 6 4 3 5 3 2 1 2 2 1 4 2 6 6 5 7 11 13 16 20 21 24 28 30 30 29 30 31 31 30 29 28 28 28 29 29 29 29 28 29 30 30 30 30 31 31 30 29 28 27 26 25 25 24 24 23 23 22 21 20 20 19 18 18 17 17 17 16 16 15 13 11 9
2 5 16 13 6 7 6 8 9 7 6 6 6 8 7 6 6 3 4 5 2 3 3 2 1 6 5 5 9 7 3 9 14 16 23 29 29 29 31 31 31 30 30 30 28 26 26 27 28 28 29 30 31 31 30 30 30 29 29 30 30 29 29 28 27 26 26 26 25 25 25 24 23 22 21 19 18 16 15 14 14 14 13 11 10 8
2 4 12 10 9 9 6 9 9 7 6 6 6 8 9 7 5 5 7 6 4 5 4 1 5 6 6 5 8 4 3 8 9 10 20 28 27 29 33 33 32 31 31 30 29 28 27 26 26 28 29 31 31 30 29 29 30 30 29 30 30 30 29 29 28 28 28 28 27 27 26 25 24 23 21 18 16 15 14 13 12 11 11 10 10 12
6 8 6 7 11 8 8 10 9 9 8 6 4 7 9 7 7 7 7 6 3 3 2 2 4 4 5 6 6 1 2 8 8 9 16 23 28 33 35 34 33 32 31 30 30 29 28 27 26 27 28 29 30 29 29 29 30 30 30 29 30 29 29 29 30 30 30 29 29 28 27 25 24 22 20 17 16 15 15 14 13 11 12 12 13 14
9 12 8 9 10 8 10 10 8 9 7 6 3 4 6 6 7 7 7 4 0 1 3 3 3 3 5 6 5 2 2 7 9 11 13 21 31 35 36 35 33 32 32 31 30 29 28 28 26 25 25 27 28 28 29 29 29 29 29 29 29 30 30 30 30 31 30 30 29 28 27 26 24 21 19 18 17 17 15 14 14 12 13 15 15 16
6 12 13 11 8 8 9 8 7 9 7 5 4 4 3 3 3 3 4 4 2 2 7 7 6 4 5 6 3 1 2 6 8 9 11 20 30 33 34 36 34 33 33 32 31 29 29 29 27 26 25 25 27 27 28 28 29 29 29 29 30 30 30 30 31 31 30 30 29 28 27 25 23 21 20 20 19 18 16 15 14 15 16 17 16 14
3 9 14 10 8 7 6 7 7 9 7 6 6 5 6 4 4 3 2 4 2 5 8 7 7 5 5 6 4 4 5 7 8 8 9 15 23 28 33 35 34 33 33 33 32 29 29 30 30 29 28 27 27 28 28 28 29 29 29 30 30 30 31 31 31 31 30 30 29 28 27 25 24 22 21 21 21 19 18 17 17 17 17 17 14 11
3 5 7 6 9 8 3 5 4 3 5 5 4 4 3 3 3 3 3 2 4 8 6 3 4 4 5 5 4 6 6 6 8 8 8 10 15 21 28 33 33 32 32 33 32 31 31 31 32 31 30 29 29 29 30 30 30 30 30 31 31 31 31 32 32 32 31 30 29 27 26 25 24 23 22 23 22 21 20 19 19 18 17 16 12 10
2 2 2 2 9 11 5 3 0 2 3 4 3 6 4 1 1 1 2 2 5 6 3 1 2 3 6 7 7 8 9 8 9 11 11 11 14 16 19 26 30 30 31 32 32 31 31 31 32 32 31 31 31 31 32 32 32 32 32 32 32 33 33 33 33 32 31 30 28 27 26 25 25 23 23 22 21 21 20 21 20 18 16 13 11 9
1 4 4 4 6 11 10 7 5 2 5 7 5 7 7 3 4 6 4 1 4 4 2 1 1 3 4 6 9 12 11 9 10 14 15 15 16 15 13 19 25 28 30 31 31 30 29 29 30 30 31 32 32 33 33 33 34 34 34 34 34 34 34 34 34 33 31 30 28 26 26 25 24 23 22 21 21 21 21 21 20 17 14 12 11 10
6 3 7 8 6 11 11 7 5 4 5 7 3 4 6 5 5 6 4 3 4 2 2 2 1 4 3 4 8 11 12 11 10 14 16 16 17 15 13 15 22 28 30 29 29 28 28 28 28 29 31 32 33 33 34 35 35 35 35 35 35 35 35 35 35 33 32 30 28 27 26 25 24 24 23 22 21 22 22 21 18 16 14 13 12 11
8 4 3 4 6 10 9 5 3 5 5 5 1 3 5 5 5 3 3 5 4 2 1 2 3 4 4 6 7 6 10 11 10 11 12 14 16 14 14 16 21 28 29 29 28 27 27 27 28 30 31 33 34 34 35 36 36 36 36 36 35 35 35 34 34 33 31 30 29 28 27 26 26 25 24 24 24 23 22 19 16 15 15 14 13 12
7 3 2 3 3 4 7 6 4 5 4 2 3 5 5 3 7 5 2 0 3 2 3 2 3 5 3 5 7 5 6 8 8 9 9 13 14 14 16 16 20 26 28 28 27 26 26 26 27 28 29 31 32 32 33 33 33 34 34 35 34 34 33 32 31 31 30 30 29 29 28 28 27 26 26 26 25 23 19 16 15 17 17 16 15 14
5 1 1 4 4 3 4 5 3 3 4 4 4 6 3 2 4 4 2 2 3 3 4 0 3 4 1 3 5 5 5 9 9 8 8 10 13 17 19 17 19 23 25 26 26 25 25 24 24 24 25 26 26 26 26 26 28 29 30 31 31 31 30 29 28 28 28 28 29 29 28 28 28 27 27 25 23 19 17 17 18 19 18 17 15 13
5 3 3 2 5 3 2 4 2 2 4 4 4 3 3 3 3 1 3 2 1 3 4 3 3 3 4 5 4 3 7 10 9 6 6 9 14 19 20 18 19 23 25 26 25 25 23 22 21 20 20 20 21 22 22 22 23 25 26 27 27 27 26 26 26 26 27 27 28 29 29 29 29 28 26 23 20 19 19 20 21 20 18 17 15 13
5 4 1 2 1 2 2 2 5 4 3 2 1 1 1 3 5 3 2 4 4 4 3 3 2 3 5 6 5 7 10 10 8 5 6 12 18 21 21 21 22 24 26 26 25 23 21 19 18 17 17 17 18 19 20 21 22 23 24 25 25 25 25 25 26 26 27 27 28 29 29 28 27 26 24 22 21 21 23 23 21 20 18 16 14 13
4 3 2 1 2 2 2 3 6 6 4 2 2 4 3 0 1 2 1 3 4 3 3 2 2 5 7 5 8 12 12 9 8 7 8 14 20 22 22 22 23 24 25 24 23 22 19 17 16 16 16 16 17 18 19 20 21 22 23 23 24 24 24 26 27 27 28 28 27 27 26 26 25 24 23 23 24 25 24 23 21 19 18 16 15 13
3 4 4 2 1 4 3 1 3 5 4 3 4 4 4 3 3 2 4 1 2 2 4 4 3 7 6 5 9 12 7 3 6 7 9 14 19 22 22 22 22 23 23 22 20 19 18 16 16 16 16 16 16 17 18 20 21 21 22 23 24 24 25 26 27 27 27 27 26 25 24 25 25 26 26 27 27 26 24 23 21 19 18 16 15 14
4 4 4 2 3 5 3 2 4 4 3 2 3 3 3 3 4 5 6 3 1 1 2 3 2 6 6 4 6 8 6 4 6 7 11 16 18 20 22 22 23 23 22 20 18 18 18 17 16 15 16 16 16 17 17 19 20 21 22 23 24 25 26 26 25 25 25 25 26 25 25 26 27 29 29 28 27 26 24 23 21 20 18 17 15 14
5 4 4 1 2 3 3 1 3 3 2 2 4 3 3 3 2 4 5 3 3 3 2 2 4 6 6 3 4 8 10 10 11 10 13 17 16 16 19 21 23 24 22 20 19 18 18 18 18 17 16 16 16 17 18 18 20 21 22 24 25 26 26 25 25 25 26 27 27 28 28 29 29 30 29 28 27 25 24 22 21 20 18 17 15 13
6 4 4 4 1 2 2 2 3 4 3 3 2 1 2 2 4 3 2 3 2 4 5 5 6 6 6 4 4 6 7 9 13 12 14 17 16 14 15 17 21 24 23 21 20 20 20 20 19 18 17 17 17 18 18 19 21 22 23 24 25 26 25 25 25 26 27 29 30 30 30 30 30 30 29 28 26 25 24 22 21 20 18 17 15 13
7 4 5 7 7 8 8 6 6 6 3 1 0 0 2 4 5 3 2 3 3 4 4 5 5 6 7 6 6 6 5 7 10 9 10 14 14 12 12 14 18 22 23 22 21 21 22 21 20 19 18 18 18 19 20 21 22 23 24 24 24 25 26 26 26 27 28 29 30 31 31 31 30 29 28 27 25 24 23 22 21 19 18 17 15 14
4 2 7 10 11 11 7 4 4 6 4 4 3 2 4 4 3 3 2 3 5 3 3 6 5 4 7 7 7 7 6 6 8 8 9 11 11 11 11 12 16 20 22 22 21 21 22 21 21 20 19 19 20 20 21 22 23 24 25 25 24 25 25 26 27 27 28 29 30 30 30 30 29 28 27 26 25 24 23 22 21 19 18 17 16 15
3 4 11 12 12 9 5 5 7 9 8 9 8 6 7 6 6 5 5 7 5 4 6 7 6 6 9 9 9 8 6 6 7 9 11 10 9 10 11 12 14 18 20 21 22 22 22 22 21 21 20 21 21 22 22 23 24 24 24 24 25 26 26 27 27 27 28 29 29 29 29 29 28 27 27 26 25 24 23 23 21 20 19 18 17 15
4 8 10 9 10 7 6 8 10 11 11 11 12 12 10 8 9 10 11 11 7 6 11 9 9 11 10 8 9 9 8 5 5 7 8 7 8 10 11 12 14 17 20 22 23 23 23 23 22 22 22 23 23 23 24 25 26 26 26 26 26 26 27 27 27 28 29 29 29 29 29 29 28 28 27 26 26 25 24 23 22 21 20 18 17 15
4 7 7 8 8 5 5 7 8 11 11 11 14 16 14 13 13 13 16 16 13 13 13 6 7 11 9 7 9 9 6 4 4 6 7 7 8 10 12 14 15 17 19 21 22 23 23 23 23 23 24 26 27 26 26 27 28 28 29 29 28 28 28 28 29 29 30 29 29 30 30 30 29 29 28 27 26 26 25 24 23 22 20 19 17 16
2 4 4 8 7 3 1 1 5 9 9 9 12 16 18 19 18 18 17 14 11 13 11 5 6 11 8 8 12 13 10 5 4 7 9 9 10 10 12 15 17 18 19 19 21 22 23 24 24 25 27 28 29 28 27 29 30 31 31 30 30 29 29 29 30 30 31 30 31 31 31 31 30 30 29 28 27 27 26 25 24 22 20 19 17 16
3 2 2 6 6 4 1 2 5 5 3 5 10 13 17 19 17 16 14 11 11 12 11 8 10 10 6 6 11 14 12 8 8 12 14 12 12 12 14 15 16 18 18 19 20 22 23 24 25 26 28 30 31 30 29 30 32 34 33 32 31 30 30 31 31 32 32 32 32 32 32 32 31 30 30 29 28 28 27 25 24 22 20 19 18 16
6 5 3 5 6 3 0 4 6 5 2 7 12 13 15 13 11 10 9 12 14 12 10 11 11 9 6 7 9 8 7 9 14 20 21 18 16 15 16 16 18 19 20 21 22 23 23 23 23 25 28 30 32 32 31 31 33 35 35 34 33 32 32 33 33 33 34 33 33 34 33 32 32 31 30 30 30 29 27 25 24 22 21 20 18 16
7 7 4 5 5 2 1 4 6 4 6 8 6 9 15 15 14 13 14 15 15 12 10 10 7 5 6 8 10 9 10 14 20 23 22 19 17 16 18 19 20 22 22 23 24 24 24 24 24 25 27 29 31 32 32 32 33 36 36 35 34 34 34 35 35 35 35 35 34 34 34 33 33 32 32 32 31 29 28 26 24 23 22 20 19 17
8 8 4 3 4 3 2 5 5 8 9 5 2 3 10 14 16 17 17 16 15 14 13 12 9 6 9 13 15 14 15 18 21 21 19 17 17 17 19 21 22 22 23 23 24 25 25 25 26 25 25 26 29 31 33 33 34 36 37 36 35 35 36 36 36 36 36 36 36 35 35 35 34 34 33 33 32 30 28 26 25 24 22 21 19 16
10 8 4 2 3 3 3 5 8 7 4 4 3 1 3 4 5 8 10 12 12 11 11 14 15 11 10 15 16 11 10 12 14 18 20 18 19 20 22 23 23 22 22 23 24 24 24 24 25 24 24 25 27 30 32 34 35 37 39 38 37 36 37 37 38 38 37 37 37 37 37 37 36 36 35 34 32 31 29 27 26 24 23 21 19 16
11 8 5 3 2 3 4 5 5 5 6 6 5 3 5 6 6 7 7 10 11 13 13 14 14 12 11 17 19 14 9 6 7 16 24 23 22 24 26 25 23 21 22 23 23 23 23 23 24 25 25 26 26 28 30 32 35 38 40 40 39 38 39 39 40 40 39 39 39 38 39 38 38 37 36 35 33 31 29 28 26 24 23 20 18 16
9 8 8 7 2 3 5 2 3 5 9 8 6 5 9 11 11 10 5 8 8 14 19 16 12 12 12 15 19 14 8 4 5 15 26 27 25 28 29 28 26 23 23 23 24 24 23 23 24 24 24 25 26 27 28 31 34 38 40 41 40 40 41 42 42 41 41 40 40 40 40 40 39 38 36 35 33 31 29 28 26 24 22 20 18 16
7 4 7 8 3 4 6 5 6 8 8 5 7 7 12 18 16 11 1 8 6 12 21 18 12 13 16 17 18 12 5 4 6 15 25 25 23 26 27 27 27 26 25 25 25 25 25 24 23 22 22 23 24 25 27 29 32 36 39 41 42 42 42 43 43 42 42 41 41 41 41 40 39 38 36 34 32 31 29 28 26 24 22 20 18 16
7 4 6 8 6 6 7 6 6 5 5 5 7 7 14 22 19 10 3 10 6 14 23 22 18 21 25 24 19 12 8 9 10 14 20 19 17 17 16 18 22 24 26 27 26 27 27 25 24 22 21 20 19 21 24 27 30 34 37 40 42 43 44 44 43 42 42 42 42 42 41 41 40 38 36 34 32 30 29 27 26 24 22 20 18 16
4 2 3 6 6 6 7 7 5 4 5 7 5 9 20 21 13 5 9 8 8 14 19 22 24 26 24 22 18 14 18 23 18 15 15 13 12 11 9 10 14 17 20 23 24 24 24 23 21 19 17 15 14 17 20 23 27 30 33 37 41 43 43 43 43 43 43 43 43 43 42 41 40 38 36 34 32 31 29 27 25 23 21 20 18 17
5 3 2 4 6 5 4 4 4 6 7 7 8 15 22 14 4 8 7 3 7 10 10 14 20 20 17 20 22 22 25 26 23 20 18 17 15 12 9 9 9 10 12 13 15 16 16 15 15 14 13 12 13 15 17 20 24 27 31 35 37 39 42 43 44 44 44 44 44 44 43 42 40 38 36 34 32 30 29 27 25 23 22 20 18 17
7 6 4 4 5 3 2 3 3 7 6 17 18 11 10 6 3 7 7 6 6 8 7 9 12 12 13 17 19 20 20 19 18 18 18 18 15 10 9 9 9 9 9 7 7 8 9 9 10 9 10 11 12 14 16 19 22 25 29 32 34 37 41 43 44 45 45 45 45 44 43 42 40 39 37 34 32 30 28 27 26 24 22 20 19 17
5 7 6 5 5 5 5 8 7 4 10 26 20 7 15 16 5 5 9 8 7 9 9 8 7 9 11 11 11 14 16 16 15 14 13 13 12 10 10 10 10 10 10 8 7 6 6 6 7 7 8 9 10 12 14 17 20 23 26 29 32 35 39 42 43 45 45 45 45 44 43 42 41 39 37 34 32 30 29 28 26 24 23 21 19 17
7 6 5 4 4 4 5 7 4 1 13 23 11 4 21 27 12 3 8 8 7 10 12 10 8 9 10 10 10 11 12 13 13 12 11 12 12 12 12 11 11 11 10 9 8 6 5 5 5 6 7 8 9 11 13 15 18 21 24 26 29 33 36 39 42 44 45 45 45 44 43 42 41 39 36 34 33 31 30 29 27 24 23 21 19 17
3 3 5 4 2 3 3 3 4 4 11 18 8 3 16 26 17 8 7 8 8 10 12 12 12 12 11 11 12 11 11 12 12 12 12 13 14 14 13 12 11 10 9 8 7 5 5 5 5 7 8 10 11 12 13 15 18 20 23 25 27 30 33 36 40 42 44 45 44 44 44 42 41 39 36 35 33 32 30 28 26 24 23 21 19 18
3 4 4 3 4 4 4 3 4 6 11 15 10 6 12 21 22 15 10 9 9 10 12 14 14 14 14 13 12 11 11 11 11 12 13 14 14 14 12 11 11 9 8 7 6 5 5 6 7 8 10 11 12 13 14 15 18 20 22 24 26 28 31 34 37 40 43 44 44 44 44 42 41 39 37 36 34 32 31 29 26 24 23 21 20 19
3 7 6 3 5 6 4 3 1 4 9 12 10 8 10 17 22 20 14 12 11 11 13 14 14 14 15 13 13 12 11 12 12 12 13 13 13 12 11 11 10 8 7 7 6 6 7 8 9 10 10 10 11 12 13 15 17 19 21 23 25 27 30 32 35 38 41 43 44 44 43 42 41 39 37 36 35 33 31 29 26 25 23 22 22 22
8 9 6 3 4 2 1 2 2 4 2 9 13 13 14 16 19 19 16 14 13 13 14 14 13 14 13 12 12 12 12 13 14 13 13 13 12 11 11 10 9 8 7 7 7 8 9 10 11 11 10 10 10 11 12 13 15 18 20 22 24 26 29 31 33 36 39 42 43 44 43 42 40 39 38 36 35 33 31 28 26 26 25 25 26 26
9 7 3 4 4 5 3 8 12 6 1 12 20 20 17 17 17 17 16 14 13 13 13 13 13 12 12 11 11 10 10 12 12 11 11 11 10 10 10 9 8 8 8 8 9 9 10 10 11 10 10 10 10 11 11 12 14 16 18 21 23 26 28 30 32 34 38 41 43 43 43 42 41 40 39 37 35 33 32 30 30 30 30 29 28 27
7 7 9 8 7 8 9 20 25 12 3 13 25 24 20 18 17 17 16 15 14 13 12 11 11 11 10 10 9 9 9 9 9 9 9 9 9 9 8 8 8 8 8 9 9 9 9 9 9 9 10 10 10 11 11 12 13 15 16 19 21 24 27 29 31 33 36 39 42 43 43 43 42 41 39 37 36 34 34 33 34 33 32 31 29 28
Wind_Direction
159 150 192 205 197 190 190 195 216 229 248 256 244 214 204 201 230 229 242 286 205 169 222 217 221 248 250 258 245 202 205 218 222 220 221 222 222 222 223 225 228 231 236 234 230 227 225 223 221 219 219 221 223 224 224 224 223 224 224 228 230 231 232 232 232 232 232 233 234 237 239 238 238 239 241 242 244 250 254 257 261 265 268 270 270 272
163 193 215 206 182 171 182 192 221 222 233 248 248 239 227 210 226 234 227 299 340 181 236 229 228 261 256 255 253 196 197 222 225 220 221 223 225 228 229 230 233 237 240 238 235 231 228 226 222 221 219 219 222 223 223 224 224 225 226 228 229 230 231 231 232 232 231 232 232 237 241 243 245 245 247 250 252 256 258 257 259 261 265 268 272 274
182 220 215 177 142 151 187 209 228 227 225 233 235 230 233 220 237 282 289 326 8 189 258 257 209 254 259 257 242 207 213 228 228 224 223 224 224 229 231 233 235 238 240 239 237 235 231 228 224 222 221 219 221 222 224 225 225 227 228 229 229 229 230 231 232 233 232 234 236 242 247 250 253 252 252 253 254 256 255 255 254 253 255 259 263 266
193 232 161 132 144 169 201 222 231 234 231 231 215 204 240 219 183 237 257 313 20 123 233 150 203 267 275 286 267 234 232 235 237 235 234 232 229 232 234 236 237 237 238 238 237 236 233 230 227 224 223 221 221 222 223 225 225 227 228 229 229 228 229 229 231 233 234 237 239 244 249 252 252 249 246 246 245 245 246 248 250 252 255 260 261 258
189 118 129 138 166 191 209 231 235 235 238 241 215 204 231 211 200 214 186 134 28 354 89 100 13 300 266 267 270 247 233 234 241 241 243 242 238 239 242 241 240 239 238 238 237 236 235 232 229 226 225 224 224 223 222 223 223 225 226 228 229 229 230 229 230 233 235 237 237 239 243 245 244 240 238 239 238 240 244 247 249 251 252 253 252 251
215 108 143 157 181 185 204 237 232 219 235 256 227 210 211 206 206 188 136 117 101 259 268 102 229 283 281 254 250 248 230 234 240 238 241 245 242 242 244 243 241 240 239 238 236 235 235 234 231 229 227 226 226 225 224 224 223 224 226 227 229 230 230 230 231 233 235 237 236 237 238 239 239 237 236 238 240 245 250 251 250 247 241 237 238 244
229 147 148 166 186 182 203 239 234 205 215 255 235 206 206 198 177 162 152 142 164 226 272 86 183 255 308 269 246 256 280 255 250 245 244 245 243 241 242 242 241 239 238 236 235 234 234 235 233 230 228 226 226 226 226 226 225 225 226 227 228 229 230 230 232 234 236 238 239 239 240 241 242 242 242 244 247 248 246 246 247 246 243 238 236 238
165 171 161 169 183 192 206 225 227 196 200 248 238 191 194 183 172 176 167 167 197 218 303 18 154 226 277 256 261 312 288 272 265 258 252 246 242 240 240 241 239 238 237 236 235 233 232 232 233 232 230 229 228 227 227 227 226 225 226 227 229 230 231 232 233 235 237 239 240 241 242 243 243 244 246 247 248 246 243 244 241 240 246 248 245 247
157 175 177 168 181 203 210 220 217 187 208 247 217 168 184 178 173 180 172 171 163 175 251 274 159 202 261 267 303 359 257 273 264 249 246 243 240 239 239 238 237 236 235 235 236 234 232 231 233 234 234 232 230 228 228 228 228 228 228 229 230 231 233 233 234 235 237 240 242 243 243 243 243 244 243 243 244 244 244 245 243 240 243 248 254 261
174 183 174 170 194 203 205 229 211 188 214 218 151 97 72 68 88 128 160 140 75 221 227 219 183 205 263 270 292 350 242 254 255 249 242 241 240 239 239 237 235 234 232 233 235 234 232 231 232 234 234 233 231 230 230 229 229 230 230 231 232 233 233 233 234 235 236 239 240 242 242 240 242 242 239 238 239 242 243 240 244 247 248 256 264 262
139 167 174 184 212 201 203 236 219 201 196 141 116 77 51 33 50 60 67 94 112 241 237 217 192 200 255 264 235 212 219 218 228 251 254 248 246 241 239 236 233 232 231 232 234 233 232 231 231 232 232 231 231 230 230 230 230 230 231 233 234 234 233 233 233 234 235 236 238 238 238 238 239 239 237 235 235 237 238 238 242 247 255 267 268 252
108 144 184 196 199 186 184 235 233 220 189 147 122 111 76 358 30 39 7 77 195 237 258 247 188 181 232 255 232 229 247 224 213 237 252 260 261 250 240 234 230 231 231 231 232 233 231 231 231 231 230 230 230 230 231 231 232 232 233 234 235 236 235 234 233 233 233 233 234 234 235 236 238 237 235 234 235 234 233 237 243 249 261 267 254 236
171 213 234 160 190 188 169 202 256 9 212 194 159 145 158 253 89 180 234 195 220 239 281 289 180 195 236 250 254 260 266 245 222 231 247 267 278 271 252 236 229 228 229 230 230 231 231 231 231 230 230 230 230 230 231 232 233 234 236 237 238 238 238 237 235 234 233 232 232 232 233 234 236 236 235 234 236 237 236 240 246 253 260 252 229 214
197 293 248 173 195 196 186 189 190 193 198 195 185 173 181 172 160 203 219 230 247 254 299 298 221 246 268 265 250 247 253 249 240 248 258 267 274 279 268 241 229 226 225 226 227 228 228 229 229 229 229 230 230 231 232 233 234 236 237 239 240 241 241 240 238 236 234 232 232 232 233 234 233 233 234 236 237 238 241 243 249 255 250 227 206 197
175 231 213 190 177 179 191 208 184 150 178 204 210 163 177 173 175 204 205 196 218 244 301 300 216 195 200 251 244 243 267 277 265 262 264 264 266 271 266 241 226 222 220 220 222 224 226 227 229 230 231 232 232 232 233 234 236 237 238 239 241 242 242 241 239 237 235 232 231 231 232 233 232 230 230 233 235 237 240 244 248 245 227 205 193 186
190 225 214 160 143 154 176 205 138 123 173 217 168 139 204 195 153 151 182 180 169 154 277 242 226 214 207 267 280 277 290 286 266 264 261 254 257 259 256 241 224 219 217 217 220 223 226 228 230 232 234 235 235 234 235 235 237 238 239 240 241 241 241 240 238 236 234 231 229 229 229 229 229 228 226 227 230 233 237 241 238 221 204 193 185 181
186 230 352 91 108 157 170 168 162 179 191 171 163 199 231 169 119 117 196 104 91 173 239 197 238 296 306 282 308 337 309 290 268 262 252 242 243 245 247 239 223 217 215 218 223 226 231 233 235 236 235 236 236 236 237 237 238 238 237 238 238 237 237 235 234 233 231 229 227 226 225 225 226 226 226 227 230 232 233 227 214 200 191 186 182 181
157 129 314 150 156 203 174 146 163 209 166 136 192 205 196 117 106 113 171 6 51 209 263 273 217 274 247 245 323 350 295 276 264 253 253 245 232 232 238 231 219 216 215 221 225 228 234 237 238 238 236 237 238 238 238 237 236 234 233 233 233 232 231 230 229 228 227 226 224 223 222 221 223 225 227 230 231 229 221 208 198 190 184 181 181 184
155 114 318 197 165 174 134 131 176 232 184 184 223 197 144 177 208 151 162 187 177 221 280 317 259 250 199 214 289 276 235 249 250 239 249 247 230 227 229 222 215 214 215 221 225 229 234 236 236 235 234 236 236 236 235 232 231 229 227 227 226 227 227 227 226 223 222 221 219 220 220 220 222 225 227 228 224 215 204 196 190 184 181 182 184 184
165 137 299 285 214 167 99 152 193 205 202 194 241 220 165 176 189 189 166 165 181 212 252 299 303 264 227 217 220 229 233 235 231 220 227 234 231 229 227 219 215 215 217 222 226 231 233 231 231 229 230 232 231 232 230 226 225 223 221 220 218 218 220 222 223 221 218 216 216 218 220 221 223 224 222 217 208 200 193 189 186 182 182 184 184 184
162 144 179 294 312 190 175 201 192 184 179 172 181 196 207 127 144 185 173 120 137 174 194 218 274 263 248 213 199 227 241 229 212 215 228 232 232 232 229 224 220 219 221 225 229 233 233 229 228 226 226 227 224 224 223 220 219 217 216 215 212 212 213 216 218 219 218 217 217 219 219 219 218 212 206 199 193 190 187 185 184 183 184 184 185 186
168 154 158 157 202 188 197 243 183 171 167 170 198 203 189 156 113 168 234 217 106 159 170 164 243 268 257 212 206 226 239 215 205 219 237 241 238 235 232 229 227 226 227 230 232 237 237 233 229 226 226 225 222 220 218 216 213 212 212 209 206 206 208 212 214 214 215 214 214 214 211 207 202 195 190 188 187 186 184 184 185 184 185 186 187 188
128 115 126 147 206 206 231 217 159 156 148 163 219 218 181 170 135 164 220 229 133 189 129 131 238 271 262 229 224 247 277 291 259 245 248 252 247 241 237 232 229 230 231 233 236 239 239 237 233 229 227 224 219 215 212 210 207 206 206 203 201 201 203 207 210 209 208 206 204 202 197 193 189 186 186 186 185 185 184 185 185 184 185 188 191 192
132 114 117 98 299 307 316 341 107 119 130 212 236 199 165 200 153 157 194 181 170 191 141 168 252 267 274 273 252 264 279 282 272 259 253 256 254 248 243 234 229 230 230 230 233 236 237 235 233 229 225 221 215 209 205 204 202 201 201 200 198 199 200 201 202 202 199 195 192 189 187 186 186 186 186 185 185 185 186 186 186 185 186 189 193 195
165 154 132 126 63 4 335 304 255 217 199 199 234 220 160 124 99 110 128 116 197 222 174 191 240 254 272 308 307 282 287 283 272 263 256 258 257 252 247 237 229 228 228 228 229 230 231 231 231 227 223 218 211 204 201 199 199 199 198 198 198 197 197 196 195 193 189 186 185 184 185 186 187 186 185 185 186 187 187 187 187 188 189 191 195 196
170 176 152 155 173 190 197 210 213 206 194 184 139 317 212 162 141 167 141 128 222 241 166 182 228 258 280 307 313 302 306 290 278 269 256 252 251 251 249 240 229 225 225 227 228 229 230 231 230 227 221 216 208 203 201 199 199 199 197 197 196 195 193 190 186 184 182 183 184 186 187 187 187 187 186 187 188 187 187 188 189 191 192 193 196 199
145 181 178 188 198 195 190 180 145 126 141 206 209 180 212 208 177 159 122 170 199 182 193 213 203 230 269 277 281 290 291 278 277 275 262 253 248 247 246 241 232 225 224 227 229 230 232 232 231 227 221 214 209 204 203 202 201 200 198 194 191 189 186 184 183 184 185 187 189 190 189 188 188 189 189 189 189 188 189 190 192 194 195 196 198 201
114 203 194 200 206 194 161 151 144 138 170 200 196 198 207 197 178 176 208 221 175 146 245 243 183 200 241 245 254 270 263 252 271 280 279 271 254 244 242 238 232 226 224 226 229 231 232 232 230 226 220 214 211 209 207 207 205 202 199 194 190 187 185 186 189 190 192 193 193 192 191 191 191 191 191 190 190 190 191 193 195 196 197 199 200 202
159 208 195 190 198 191 172 171 162 163 185 194 193 205 209 195 189 197 220 224 186 195 243 231 188 209 230 235 248 253 243 246 289 302 299 287 254 240 238 236 232 228 227 228 230 231 232 232 230 226 221 216 214 213 211 209 207 203 199 195 193 192 191 193 196 197 197 197 195 194 194 195 194 193 192 192 192 193 194 196 197 198 199 201 203 203
177 194 178 165 178 186 186 190 182 181 190 193 196 204 206 205 206 208 221 226 213 222 242 231 209 230 232 227 240 246 253 284 309 296 286 271 252 239 234 235 234 231 231 232 234 234 234 234 232 229 225 221 217 216 215 212 208 205 201 198 197 197 198 199 201 202 201 199 198 198 198 198 196 195 194 194 195 196 197 199 200 201 203 203 204 203
176 184 152 141 160 199 260 204 203 201 203 202 205 208 206 207 213 216 224 230 227 237 249 249 252 255 240 224 238 249 261 285 293 271 263 254 246 237 231 235 236 234 236 238 238 239 238 237 235 232 229 226 223 221 219 216 212 209 205 203 202 202 203 204 204 205 204 203 202 201 200 200 198 197 196 196 197 199 200 202 203 204 205 205 204 203
118 148 98 119 164 222 332 115 179 190 212 236 233 224 212 209 213 216 218 216 216 230 239 239 250 255 238 219 236 246 247 244 245 253 255 251 242 236 235 238 241 242 244 243 240 240 240 239 238 236 233 230 228 226 224 220 216 213 210 209 208 207 208 208 207 207 207 205 205 203 202 201 200 198 198 198 200 202 203 205 205 206 206 205 204 204
123 125 117 138 174 226 341 128 142 124 151 249 241 218 208 213 219 222 227 222 216 216 217 228 239 237 214 210 225 232 219 220 236 242 245 246 242 243 247 250 255 258 256 252 247 244 244 243 242 243 241 237 233 231 229 225 221 219 216 214 213 212 211 211 209 209 208 207 206 205 203 203 202 201 201 201 203 204 205 207 207 207 207 205 204 206
133 129 143 162 160 187 187 123 114 138 209 241 236 187 189 198 202 212 225 224 219 216 217 234 244 210 193 208 217 214 206 217 234 240 244 247 245 250 258 261 263 264 261 258 255 253 253 251 247 247 248 246 242 237 233 230 226 223 220 219 217 215 214 213 211 210 209 208 208 206 205 205 204 204 204 204 205 206 207 208 208 207 206 205 206 208
147 142 147 144 130 147 130 109 148 210 226 253 327 165 190 196 197 208 223 226 222 221 226 243 249 208 201 220 225 225 225 229 237 242 246 252 252 254 260 261 261 262 262 261 259 257 258 256 252 251 251 251 249 243 237 233 229 225 223 222 221 219 217 215 213 212 211 210 209 208 206 206 206 206 206 206 207 208 208 209 208 207 207 207 208 210
158 151 136 107 121 136 133 162 198 228 273 297 294 246 170 169 174 202 239 249 237 223 223 234 238 227 221 233 237 239 242 242 245 246 244 245 249 250 251 253 256 259 261 261 260 261 264 265 264 261 257 255 252 247 242 237 232 228 226 224 223 221 219 218 216 214 213 212 211 209 208 208 208 208 208 209 209 209 209 209 208 207 208 209 210 211
152 144 129 137 157 133 150 200 237 305 309 265 239 204 160 149 152 169 224 253 233 214 214 222 233 234 227 237 243 246 252 265 272 257 247 242 245 250 253 254 257 259 260 262 265 268 269 270 269 265 260 257 254 252 248 242 236 232 228 226 224 222 221 219 218 216 215 214 213 211 210 210 211 210 210 210 211 211 210 210 208 208 208 209 210 212
148 150 158 172 196 105 128 205 263 267 259 236 197 184 173 169 164 156 190 255 232 210 212 212 223 227 220 232 239 235 241 277 285 262 255 251 251 253 256 257 257 257 256 259 263 266 267 268 268 265 261 257 255 254 251 247 240 235 231 228 225 223 222 220 219 218 216 216 215 213 212 212 212 212 212 212 212 212 211 210 208 208 209 209 211 214
108 116 151 163 174 139 152 196 208 224 249 206 165 182 174 164 148 118 163 266 234 200 208 206 208 220 218 219 216 197 188 229 243 256 261 263 261 258 258 259 258 256 254 255 259 262 265 269 269 266 262 257 253 252 250 248 245 239 235 232 228 226 224 223 222 220 218 217 216 214 214 213 213 213 214 214 214 213 212 210 209 208 209 210 213 217
107 112 152 166 178 171 173 202 216 235 248 195 187 195 168 155 136 107 269 259 201 191 206 201 199 215 218 212 198 174 185 217 233 257 262 266 270 267 264 263 258 255 252 252 256 260 263 267 267 267 267 265 261 255 250 248 246 242 240 236 232 230 229 227 225 222 220 218 217 215 214 214 214 214 214 215 215 213 211 210 209 209 210 212 215 219
111 124 172 175 175 168 178 209 251 268 228 215 216 168 151 140 127 160 231 228 177 193 208 203 207 217 216 201 186 193 223 229 233 252 259 261 268 269 267 264 259 256 254 253 255 259 262 265 268 269 270 269 262 255 251 249 247 244 242 239 236 236 234 231 227 224 221 219 217 216 215 214 214 214 214 214 215 213 211 210 210 211 212 214 218 221
151 152 183 172 160 155 176 203 266 271 218 176 147 151 150 142 167 217 208 146 161 192 203 206 215 221 215 204 204 219 237 241 242 250 255 258 264 264 256 250 252 258 259 254 253 255 256 259 262 262 260 256 250 248 248 247 246 245 242 240 240 240 236 231 227 224 221 219 217 216 215 214 214 214 213 214 213 213 212 211 211 212 214 216 220 223
168 159 179 191 165 140 141 171 229 272 199 142 128 137 168 180 218 195 164 126 155 177 171 183 202 206 206 212 218 227 239 245 246 249 253 254 258 255 241 236 242 253 261 260 252 249 249 251 253 255 254 252 248 246 246 246 246 244 243 242 242 239 235 231 227 224 221 219 217 216 215 215 215 214 214 214 213 213 213 213 214 215 216 219 222 225
186 174 182 207 183 154 177 195 212 261 161 149 141 163 204 203 195 147 169 174 170 173 173 170 180 193 200 208 221 228 233 240 244 246 247 245 241 233 227 231 238 246 254 259 256 252 250 252 255 257 258 256 253 251 249 249 248 246 245 244 242 239 235 232 228 225 222 220 218 217 216 216 216 216 215 215 215 214 214 215 216 217 218 221 223 227
218 195 166 183 191 177 201 210 210 133 162 166 161 189 197 200 206 172 186 203 196 189 192 190 196 210 211 211 219 225 233 242 243 238 233 228 221 220 226 233 236 239 243 245 246 248 252 260 269 276 277 275 270 264 259 254 252 249 247 246 243 240 238 234 230 227 223 221 219 218 217 217 216 217 217 216 217 217 217 217 218 219 221 223 225 229
253 172 125 123 187 257 271 205 136 126 173 182 186 193 193 201 212 211 205 219 215 206 205 203 208 220 224 223 223 224 232 242 241 231 222 218 217 221 229 233 231 229 228 226 227 231 239 252 265 272 275 275 272 269 263 256 251 249 248 247 245 243 241 238 234 229 225 223 220 219 218 218 217 218 218 218 219 219 219 220 220 222 224 225 228 235
283 175 145 132 161 196 242 227 141 157 190 195 202 208 195 200 210 218 224 228 222 216 211 206 208 216 221 225 227 225 227 231 230 221 213 213 219 222 224 224 221 218 216 216 221 231 243 256 265 266 266 267 267 268 266 260 255 251 249 247 246 245 243 240 236 232 227 224 221 220 219 219 219 220 220 220 220 220 220 220 221 223 226 229 236 246
192 170 173 184 173 174 215 257 169 157 190 201 206 210 204 203 209 216 224 227 222 211 203 200 203 206 209 215 221 222 219 215 211 206 202 205 213 215 213 215 214 213 217 223 232 248 259 265 268 267 265 263 262 264 267 265 262 258 253 249 247 245 244 242 239 234 230 226 223 221 220 220 221 221 222 222 222 222 222 223 224 226 230 237 244 249
134 159 178 157 152 173 283 258 141 88 165 214 209 205 207 208 206 209 215 218 213 205 198 195 195 198 201 206 210 211 206 197 192 190 191 197 203 204 206 210 212 216 226 234 244 255 260 262 265 266 268 269 267 266 267 267 264 261 257 253 249 246 244 243 240 236 231 227 224 222 222 221 222 222 223 224 224 224 223 224 227 231 236 241 243 244
132 164 171 105 154 219 221 180 171 142 168 214 204 199 201 202 201 204 207 206 203 201 197 194 192 192 195 199 201 202 198 193 191 192 195 199 202 206 212 217 223 229 238 243 247 251 253 256 262 267 272 276 273 269 266 264 264 263 260 256 253 249 246 244 242 238 232 228 225 224 223 223 223 223 223 224 224 224 224 226 229 232 235 237 239 241
168 177 172 162 193 220 196 181 180 174 164 195 193 192 193 194 196 198 197 196 196 193 191 193 193 190 190 192 193 195 196 196 199 201 203 207 213 217 224 232 237 243 247 248 248 249 250 253 259 263 267 272 274 274 274 271 268 266 264 260 257 253 250 246 243 239 235 230 227 225 225 225 225 225 225 225 225 226 227 229 231 232 233 235 237 241